Regional Weather Roundup
Issued by NWS Midland/Odessa, TX

Skip options and go directly to product.
Home | Oldest Version | Next Version | Current Version | All | Text Only | Save Text | Print | Product List | Glossary On

Skip product version selection by date and time.   
221
ASUS44 KMAF 201210
RWRMAF
MIDLAND AREA WEATHER ROUNDUP
NATIONAL WEATHER SERVICE MIDLAND TX
700 AM CDT SAT SEP 20 2014

...IN SOUTHWEST TEXAS AND SOUTHEAST NEW MEXICO...

CITY           SKY/WX    TMP DP  RH WIND       PRES   REMARKS
ALPINE         CLEAR     67  64  90 SW3       30.11S
ANDREWS        CLOUDY    69  69  98 S7        30.00R
ARTESIA        NOT AVBL
BIG SPRING     CLOUDY    74  71  89 SE10      30.00S
CARLSBAD       CLOUDY    70  50  49 CALM      30.00R
DRYDEN           N/A     78  72  81 SE8       29.93S
FORT STOCKTON  MOCLDY    71  68  90 SE7       29.97S
GUAD PASS      CLEAR     62  61  96 SW5         N/A
HOBBS          MOCLDY    68  68 100 CALM      30.03
MARFA          CLEAR     59  59 100 N3        30.10S
MIDLAND AIRPK  NOT AVBL
MIDLAND INTL   CLOUDY    71  69  93 SE8       29.98R
ODESSA         CLOUDY    71  68  90 SE8       29.99S
PECOS          CLOUDY    71  69  93 N5        29.96R
PRESIDIO       FAIR      73  67  82 NE5       29.96S
SEMINOLE       DRIZZLE   68  67  98 SE5       30.01R
SNYDER         RAIN      69  69  98 SE10      29.99S
WINK           MOCLDY    72  70  93 N3        29.96R
$$
...OTHER STATIONS IN TEXAS...

CITY           SKY/WX    TMP DP  RH WIND       PRES   REMARKS
ABILENE        MOCLDY    73  70  90 SE6       29.99R
AMARILLO       CLOUDY    66  65  96 CALM      30.07R FOG
AUSTIN         CLOUDY    75  73  93 E5        29.94R
BROWNSVILLE    CLEAR     79  77  94 E3        29.85R
CORPUS CHRISTI MOCLDY    77  74  90 NE7       29.87R
DALLAS FTW     PTCLDY    73  69  87 SE6       29.98R
DEL RIO        MOCLDY    77  72  84 E8        29.89S
EL PASO        MOCLDY    67  65  93 CALM      30.01R
HOUSTON INT    PTCLDY    73  72  96 NE7       29.94R
LUBBOCK        LGT RAIN  68  66  93 CALM      30.02R
SAN ANGELO     CLOUDY    72  70  93 E5        29.97R
SAN ANTONIO    MOCLDY    76  73  91 CALM      29.94R
WACO           CLOUDY    74  72  93 SE7       29.97R
WICHITA FALLS  NOT AVBL
$$
...OTHER LOCATIONS IN NEW MEXICO...

CITY           SKY/WX    TMP DP  RH WIND       PRES   REMARKS
ALAMAGORDO     CLOUDY    68  64  88 NW7       30.04S
ALBUQUERQUE    CLEAR     65  57  75 N6        30.13R
CANNON AFB     PTCLDY    63 N/A N/A N5        30.08R
CLOVIS           N/A     64  63  94 NW6       30.10R
HOLLOMAN AFB   PTCLDY    64  64 100 CALM      30.03R
ROSWELL        CLOUDY    68  66  93 N8        30.02S
RUIDOSO        PTCLDY    55  55 100 W7        30.23S
SANTA FE       CLEAR     54  50  86 E3        30.19R
TRUTH OR CONSE CLEAR     63  61  93 N5        30.07S
TUCUMCARI      CLOUDY    63  59  87 CALM      30.06S
$$

USA.gov is the U.S. government's official web portal to all federal, state and local government web resources and services.